This is the latest recevied weather packets stored in our database for station/object ac2ev. If no packets are shown the sender has not sent any weather packets the latest 10 day(s).
| Time | Temp. | Humidity | Pressure | Rain* | Wind** | Luminosity | Snow |
|---|---|---|---|---|---|---|---|
| 1787502391 | 20° C | 76% | 1007 hPa | 0 mm | - | - | - |
| 1787502091 | 20.56° C | 72% | 1007 hPa | 0 mm | - | - | - |
| 1787501893 | 20.56° C | 75% | 1007 hPa | 0 mm | - | - | - |
| 1787501612 | 20.56° C | 76% | 1007 hPa | 0 mm | - | - | - |
| 1787501191 | 20° C | 77% | 1007.1 hPa | 0 mm | - | - | - |
| 1787500890 | 20° C | 78% | 1007 hPa | 0 mm | - | - | - |
| 1787500591 | 20° C | 78% | 1007.2 hPa | 0 mm | - | - | - |
| 1787500290 | 20° C | 79% | 1007.1 hPa | 0 mm | - | - | - |
| 1787499991 | 20° C | 79% | 1007.2 hPa | 0 mm | - | - | - |
| 1787499690 | 19.44° C | 79% | 1007.2 hPa | 0 mm | - | - | - |
| 1787499390 | 19.44° C | 79% | 1007.1 hPa | 0 mm | - | - | - |
| 1787499090 | 20° C | 78% | 1007.2 hPa | 0 mm | - | - | - |
| 1787498791 | 20° C | 79% | 1007.2 hPa | 0 mm | - | - | - |
| 1787498491 | 19.44° C | 78% | 1007 hPa | 0 mm | - | - | - |
| 1787498190 | 20° C | 78% | 1007 hPa | 0 mm | - | - | - |
| 1787497884 | 20.56° C | 75% | 1007 hPa | 0 mm | - | - | - |
| 1787497578 | 20° C | 77% | 1006.9 hPa | 0 mm | - | - | - |
| 1787497272 | 20° C | 77% | 1006.9 hPa | 0 mm | - | - | - |
| 1787496972 | 20° C | 77% | 1006.8 hPa | 0 mm | - | - | - |
| 1787496673 | 20° C | 76% | 1006.8 hPa | 0 mm | - | - | - |
| 1787496373 | 20.56° C | 76% | 1006.8 hPa | 0 mm | - | - | - |
| 1787496070 | 20.56° C | 76% | 1006.8 hPa | 0 mm | - | - | - |
| 1787495771 | 20.56° C | 76% | 1006.8 hPa | 0 mm | - | - | - |
| 1787495471 | 20.56° C | 75% | 1006.8 hPa | 0 mm | - | - | - |
| 1787495171 | 20.56° C | 75% | 1006.7 hPa | 0 mm | - | - | - |
* Rain latest hour (hover to see other rain measurements)
** Current wind speed in m/s (hover to see current wind gust speed)